| time (UTC) | temp F | wind direction | speed MPH | gust MPH | rain 1hr in | rain 24hr in | rain mn in | humidity % | barometer mb |
| 20260508190501 | 58 | 16 | 1.0 | 3.0 | 0.00 | 0.00 | 0.00 | 69 | 1019.2 |
| 20260508190037 | 58 | 12 | 2.0 | 3.0 | 0.00 | 0.00 | 0.00 | 68 | 1019.1 |
| 20260508184952 | 59 | 335 | 2.0 | 3.0 | 0.00 | 0.00 | 0.00 | 67 | 1019.0 |
| 20260508184452 | 59 | 335 | 2.0 | 4.0 | 0.00 | 0.00 | 0.00 | 67 | 1019.0 |
| 20260508183953 | 59 | 354 | 2.0 | 5.0 | 0.00 | 0.00 | 0.00 | 66 | 1019.0 |
| 20260508183450 | 59 | 341 | 3.0 | 6.0 | 0.00 | 0.00 | 0.00 | 66 | 1018.9 |
| 20260508182952 | 59 | 330 | 4.0 | 7.0 | 0.00 | 0.00 | 0.00 | 66 | 1018.8 |
| 20260508182455 | 59 | 357 | 4.0 | 7.0 | 0.00 | 0.00 | 0.00 | 67 | 1018.8 |
| 20260508181950 | 59 | 12 | 3.0 | 7.0 | 0.00 | 0.00 | 0.00 | 66 | 1018.7 |
| 20260508181449 | 60 | 352 | 3.0 | 5.0 | 0.00 | 0.00 | 0.00 | 67 | 1018.8 |
| 20260508180949 | 60 | 330 | 4.0 | 5.0 | 0.00 | 0.00 | 0.00 | 67 | 1018.7 |
| 20260508180448 | 60 | 330 | 4.0 | 5.0 | 0.00 | 0.00 | 0.00 | 67 | 1018.8 |
| 20260508175945 | 60 | 358 | 4.0 | 8.0 | 0.00 | 0.00 | 0.00 | 66 | 1018.7 |
| 20260508175445 | 60 | 6 | 4.0 | 8.0 | 0.00 | 0.00 | 0.00 | 65 | 1018.7 |
| 20260508174944 | 60 | 335 | 4.0 | 7.0 | 0.00 | 0.00 | 0.00 | 66 | 1018.7 |
| 20260508174445 | 60 | 354 | 4.0 | 9.0 | 0.00 | 0.00 | 0.00 | 66 | 1018.6 |
| 20260508174027 | 61 | 347 | 5.0 | 10.0 | 0.00 | 0.00 | 0.00 | 65 | 1018.6 |
| 20260508172942 | 61 | 354 | 5.0 | 11.0 | 0.00 | 0.00 | 0.00 | 64 | 1018.6 |
| 20260508172443 | 61 | 345 | 5.0 | 9.0 | 0.00 | 0.00 | 0.00 | 64 | 1018.5 |
| 20260508171942 | 61 | 345 | 6.0 | 11.0 | 0.00 | 0.00 | 0.00 | 64 | 1018.4 |
| 20260508171442 | 61 | 302 | 6.0 | 11.0 | 0.00 | 0.00 | 0.00 | 63 | 1018.4 |
| 20260508171025 | 62 | 330 | 5.0 | 9.0 | 0.00 | 0.00 | 0.00 | 63 | 1018.4 |
| 20260508165942 | 62 | 357 | 5.0 | 9.0 | 0.00 | 0.00 | 0.00 | 64 | 1018.3 |
| 20260508165439 | 62 | 308 | 5.0 | 10.0 | 0.00 | 0.00 | 0.00 | 61 | 1018.2 |
| 20260508165004 | 62 | 351 | 5.0 | 10.0 | 0.00 | 0.00 | 0.00 | 61 | 1018.1 |
| 20260508163938 | 62 | 330 | 4.0 | 9.0 | 0.00 | 0.00 | 0.00 | 61 | 1018.0 |
| 20260508163439 | 63 | 347 | 4.0 | 10.0 | 0.00 | 0.00 | 0.00 | 62 | 1018.1 |
| 20260508162937 | 63 | 353 | 3.0 | 10.0 | 0.00 | 0.00 | 0.00 | 62 | 1018.0 |
| 20260508162435 | 63 | 352 | 4.0 | 9.0 | 0.00 | 0.00 | 0.00 | 63 | 1018.0 |
| 20260508161936 | 63 | 6 | 5.0 | 10.0 | 0.00 | 0.00 | 0.00 | 62 | 1018.0 |
| 20260508161509 | 63 | 8 | 6.0 | 12.0 | 0.00 | 0.00 | 0.00 | 61 | 1018.0 |
| 20260508160433 | 63 | 44 | 5.0 | 10.0 | 0.00 | 0.00 | 0.00 | 61 | 1018.0 |
| 20260508155933 | 63 | 49 | 5.0 | 10.0 | 0.00 | 0.00 | 0.00 | 62 | 1018.0 |
| 20260508155436 | 63 | 60 | 6.0 | 11.0 | 0.00 | 0.00 | 0.00 | 60 | 1018.0 |
| 20260508154933 | 63 | 3 | 5.0 | 11.0 | 0.00 | 0.00 | 0.00 | 60 | 1018.0 |
| 20260508154436 | 63 | 2 | 3.0 | 9.0 | 0.00 | 0.00 | 0.00 | 63 | 1018.1 |
| 20260508153935 | 63 | 357 | 3.0 | 6.0 | 0.00 | 0.00 | 0.00 | 55 | 1018.1 |
| 20260508153433 | 63 | 52 | 4.0 | 8.0 | 0.00 | 0.00 | 0.00 | 56 | 1018.2 |
| 20260508152934 | 64 | 68 | 4.0 | 8.0 | 0.00 | 0.00 | 0.00 | 56 | 1018.1 |
| 20260508152433 | 64 | 48 | 3.0 | 7.0 | 0.00 | 0.00 | 0.00 | 55 | 1018.3 |
| 20260508151934 | 64 | 108 | 2.0 | 4.0 | 0.00 | 0.00 | 0.00 | 54 | 1018.3 |
| 20260508151433 | 64 | 41 | 2.0 | 4.0 | 0.00 | 0.00 | 0.00 | 60 | 1018.2 |
| 20260508150934 | 64 | 4 | 3.0 | 5.0 | 0.00 | 0.00 | 0.00 | 57 | 1018.2 |
| 20260508150536 | 63 | 19 | 3.0 | 7.0 | 0.00 | 0.00 | 0.00 | 58 | 1018.3 |
| 20260508144930 | 62 | 31 | 2.0 | 8.0 | 0.00 | 0.00 | 0.00 | 54 | 1018.3 |
| 20260508144430 | 62 | 89 | 3.0 | 8.0 | 0.00 | 0.00 | 0.00 | 56 | 1018.3 |
| 20260508143931 | 62 | 87 | 3.0 | 7.0 | 0.00 | 0.00 | 0.00 | 55 | 1018.4 |
| 20260508143441 | 62 | 46 | 3.0 | 7.0 | 0.00 | 0.00 | 0.00 | 60 | 1018.5 |
| 20260508142930 | 62 | 60 | 2.0 | 7.0 | 0.00 | 0.00 | 0.00 | 58 | 1018.4 |
| 20260508142429 | 62 | 127 | 2.0 | 5.0 | 0.00 | 0.00 | 0.00 | 58 | 1018.4 |
| 20260508142050 | 62 | 128 | 4.0 | 10.0 | 0.00 | 0.00 | 0.00 | 56 | 1018.5 |
| 20260508141729 | 62 | 41 | 4.0 | 10.0 | 0.00 | 0.00 | 0.00 | 60 | 1018.4 |
| 20260508135430 | 62 | 96 | 3.0 | 7.0 | 0.00 | 0.00 | 0.00 | 62 | 1018.4 |
| 20260508134940 | 62 | 100 | 4.0 | 9.0 | 0.00 | 0.00 | 0.00 | 61 | 1018.5 |
| 20260508134431 | 62 | 79 | 4.0 | 9.0 | 0.00 | 0.00 | 0.00 | 63 | 1018.5 |
| 20260508133946 | 62 | 81 | 3.0 | 8.0 | 0.00 | 0.00 | 0.00 | 64 | 1018.4 |
| 20260508133551 | 63 | 62 | 4.0 | 10.0 | 0.00 | 0.00 | 0.00 | 63 | 1018.6 |
| 20260508132432 | 65 | 106 | 4.0 | 8.0 | 0.00 | 0.00 | 0.00 | 63 | 1018.6 |
| 20260508132009 | 65 | 67 | 3.0 | 8.0 | 0.00 | 0.00 | 0.00 | 59 | 1018.6 |
| 20260508131619 | 65 | 71 | 2.0 | 8.0 | 0.00 | 0.00 | 0.00 | 63 | 1018.6 |
| 20260508125936 | 65 | 178 | 3.0 | 10.0 | 0.00 | 0.00 | 0.00 | 57 | 1018.8 |
| 20260508125529 | 65 | 104 | 2.0 | 8.0 | 0.00 | 0.00 | 0.00 | 59 | 1018.8 |
| 20260508124526 | 65 | 52 | 2.0 | 8.0 | 0.00 | 0.00 | 0.00 | 60 | 1018.8 |
| 20260508123426 | 63 | 70 | 4.0 | 8.0 | 0.00 | 0.00 | 0.00 | 66 | 1018.9 |
| 20260508122928 | 63 | 325 | 4.0 | 10.0 | 0.00 | 0.00 | 0.00 | 66 | 1018.9 |
| 20260508122423 | 63 | 5 | 4.0 | 10.0 | 0.00 | 0.00 | 0.00 | 67 | 1018.9 |
| 20260508121922 | 64 | 33 | 2.0 | 8.0 | 0.00 | 0.00 | 0.00 | 63 | 1018.9 |
| 20260508121422 | 64 | 134 | 3.0 | 7.0 | 0.00 | 0.00 | 0.00 | 65 | 1018.9 |
| 20260508120922 | 64 | 120 | 5.0 | 11.0 | 0.00 | 0.00 | 0.00 | 66 | 1019.0 |
| 20260508120432 | 63 | 144 | 4.0 | 11.0 | 0.00 | 0.00 | 0.00 | 68 | 1019.0 |
| 20260508115934 | 63 | 58 | 2.0 | 6.0 | 0.00 | 0.00 | 0.00 | 68 | 1018.9 |
| 20260508115503 | 63 | 136 | 4.0 | 10.0 | 0.00 | 0.00 | 0.00 | 63 | 1019.1 |
| 20260508114424 | 64 | 125 | 2.0 | 4.0 | 0.00 | 0.00 | 0.00 | 67 | 1019.0 |
| 20260508113959 | 62 | 101 | 3.0 | 8.0 | 0.00 | 0.00 | 0.00 | 68 | 1019.0 |
| 20260508112930 | 62 | 65 | 4.0 | 9.0 | 0.00 | 0.00 | 0.00 | 73 | 1019.0 |
| 20260508112501 | 62 | 71 | 4.0 | 9.0 | 0.00 | 0.00 | 0.00 | 72 | 1019.1 |
| 20260508111502 | 62 | 358 | 4.0 | 9.0 | 0.00 | 0.00 | 0.00 | 74 | 1019.1 |
| 20260508110427 | 61 | 66 | 4.0 | 10.0 | 0.00 | 0.00 | 0.00 | 75 | 1019.2 |
| 20260508105925 | 61 | 351 | 4.0 | 10.0 | 0.00 | 0.00 | 0.00 | 72 | 1019.2 |
| 20260508105419 | 61 | 179 | 3.0 | 8.0 | 0.00 | 0.00 | 0.00 | 73 | 1019.2 |
| 20260508104922 | 61 | 70 | 3.0 | 8.0 | 0.00 | 0.00 | 0.00 | 75 | 1019.1 |
| 20260508104414 | 60 | 19 | 4.0 | 8.0 | 0.00 | 0.00 | 0.00 | 75 | 1019.2 |
| 20260508103917 | 60 | 10 | 4.0 | 8.0 | 0.00 | 0.00 | 0.00 | 75 | 1019.3 |
| 20260508103415 | 60 | 45 | 3.0 | 8.0 | 0.00 | 0.00 | 0.00 | 75 | 1019.3 |
| 20260508102921 | 59 | 75 | 3.0 | 8.0 | 0.00 | 0.00 | 0.00 | 76 | 1019.2 |
| 20260508102416 | 59 | 117 | 2.0 | 5.0 | 0.00 | 0.00 | 0.00 | 77 | 1019.3 |
| 20260508101918 | 58 | 106 | 3.0 | 10.0 | 0.00 | 0.00 | 0.00 | 77 | 1019.2 |
| 20260508101502 | 58 | 100 | 5.0 | 10.0 | 0.00 | 0.00 | 0.00 | 78 | 1019.3 |
| 20260508100413 | 58 | 9 | 4.0 | 9.0 | 0.00 | 0.00 | 0.00 | 79 | 1019.3 |
| 20260508095914 | 58 | 33 | 5.0 | 9.0 | 0.00 | 0.00 | 0.00 | 79 | 1019.3 |
| 20260508095414 | 58 | 83 | 6.0 | 9.0 | 0.00 | 0.00 | 0.00 | 79 | 1019.3 |
| 20260508094914 | 58 | 35 | 4.0 | 9.0 | 0.00 | 0.00 | 0.00 | 80 | 1019.3 |
| 20260508094415 | 58 | 64 | 4.0 | 9.0 | 0.00 | 0.00 | 0.00 | 82 | 1019.3 |
| 20260508093913 | 57 | 43 | 5.0 | 9.0 | 0.00 | 0.00 | 0.00 | 81 | 1019.2 |
| 20260508093412 | 57 | 60 | 6.0 | 9.0 | 0.00 | 0.00 | 0.00 | 81 | 1019.2 |
| 20260508092912 | 57 | 63 | 6.0 | 9.0 | 0.00 | 0.00 | 0.00 | 82 | 1019.2 |
| 20260508092409 | 56 | 74 | 6.0 | 9.0 | 0.00 | 0.00 | 0.00 | 82 | 1019.2 |
| 20260508091910 | 56 | 35 | 5.0 | 9.0 | 0.00 | 0.00 | 0.00 | 82 | 1019.3 |
| 20260508091407 | 56 | 78 | 4.0 | 7.0 | 0.00 | 0.00 | 0.00 | 82 | 1019.2 |
| 20260508090906 | 56 | 70 | 4.0 | 7.0 | 0.00 | 0.00 | 0.00 | 82 | 1019.2 |
| 20260508090407 | 56 | 25 | 5.0 | 10.0 | 0.00 | 0.00 | 0.00 | 83 | 1019.2 |
| 20260508085904 | 56 | 60 | 5.0 | 10.0 | 0.00 | 0.00 | 0.00 | 83 | 1019.2 |
| 20260508085404 | 56 | 49 | 5.0 | 8.0 | 0.00 | 0.00 | 0.00 | 84 | 1019.3 |
| 20260508084904 | 56 | 70 | 4.0 | 8.0 | 0.00 | 0.00 | 0.00 | 84 | 1019.2 |
| 20260508084405 | 56 | 50 | 4.0 | 8.0 | 0.00 | 0.00 | 0.00 | 85 | 1019.2 |
| 20260508083906 | 56 | 40 | 5.0 | 8.0 | 0.00 | 0.00 | 0.00 | 85 | 1019.2 |
| 20260508083404 | 55 | 23 | 5.0 | 9.0 | 0.00 | 0.00 | 0.00 | 84 | 1019.2 |
| 20260508082904 | 55 | 62 | 5.0 | 9.0 | 0.00 | 0.00 | 0.00 | 85 | 1019.1 |
| 20260508082408 | 55 | 71 | 5.0 | 8.0 | 0.00 | 0.00 | 0.00 | 85 | 1019.1 |
| 20260508081902 | 55 | 30 | 4.0 | 8.0 | 0.00 | 0.00 | 0.00 | 85 | 1019.1 |
| 20260508081400 | 55 | 70 | 3.0 | 7.0 | 0.00 | 0.00 | 0.00 | 86 | 1019.1 |
| 20260508080903 | 54 | 68 | 4.0 | 7.0 | 0.00 | 0.00 | 0.00 | 86 | 1019.1 |
| 20260508080404 | 54 | 33 | 3.0 | 7.0 | 0.00 | 0.00 | 0.00 | 86 | 1019.0 |
| 20260508075902 | 54 | 81 | 4.0 | 8.0 | 0.00 | 0.00 | 0.00 | 86 | 1019.1 |
| 20260508075401 | 54 | 74 | 5.0 | 8.0 | 0.00 | 0.00 | 0.00 | 86 | 1019.1 |
| 20260508074901 | 54 | 75 | 4.0 | 7.0 | 0.00 | 0.00 | 0.00 | 86 | 1019.0 |
| 20260508074403 | 53 | 56 | 4.0 | 9.0 | 0.00 | 0.00 | 0.00 | 86 | 1019.1 |
| 20260508073901 | 53 | 51 | 4.0 | 9.0 | 0.00 | 0.00 | 0.00 | 86 | 1018.9 |
| 20260508073358 | 53 | 77 | 4.0 | 9.0 | 0.00 | 0.00 | 0.00 | 86 | 1019.1 |
| 20260508072959 | 53 | 58 | 5.0 | 9.0 | 0.00 | 0.00 | 0.00 | 86 | 1019.0 |
| 20260508071934 | 53 | 78 | 5.0 | 8.0 | 0.00 | 0.00 | 0.00 | 87 | 1018.9 |
| 20260508070944 | 53 | 70 | 5.0 | 7.0 | 0.00 | 0.00 | 0.00 | 87 | 1019.0 |
| 20260508065902 | 52 | 44 | 5.0 | 8.0 | 0.00 | 0.00 | 0.00 | 87 | 1018.9 |
| 20260508065356 | 52 | 65 | 5.0 | 8.0 | 0.00 | 0.00 | 0.00 | 88 | 1018.9 |
| 20260508064854 | 52 | 68 | 6.0 | 8.0 | 0.00 | 0.00 | 0.00 | 88 | 1018.8 |
| 20260508064357 | 52 | 72 | 5.0 | 8.0 | 0.00 | 0.00 | 0.00 | 88 | 1018.7 |
| 20260508063901 | 51 | 71 | 4.0 | 8.0 | 0.00 | 0.00 | 0.00 | 89 | 1018.7 |
| 20260508063403 | 51 | 75 | 5.0 | 8.0 | 0.00 | 0.00 | 0.00 | 89 | 1018.7 |
| 20260508062853 | 51 | 60 | 6.0 | 8.0 | 0.00 | 0.00 | 0.00 | 89 | 1018.7 |
| 20260508062407 | 51 | 54 | 6.0 | 9.0 | 0.00 | 0.00 | 0.00 | 89 | 1018.6 |
| 20260508061902 | 51 | 71 | 6.0 | 9.0 | 0.00 | 0.00 | 0.00 | 89 | 1018.6 |
| 20260508061356 | 51 | 77 | 5.0 | 8.0 | 0.00 | 0.00 | 0.00 | 90 | 1018.6 |
| 20260508060856 | 51 | 94 | 5.0 | 8.0 | 0.00 | 0.00 | 0.00 | 90 | 1018.6 |
| 20260508060432 | 51 | 54 | 5.0 | 8.0 | 0.00 | 0.00 | 0.00 | 90 | 1018.6 |
| 20260508060027 | 51 | 31 | 4.0 | 8.0 | 0.00 | 0.00 | 0.00 | 90 | 1018.6 |
| 20260508054851 | 50 | 55 | 3.0 | 6.0 | 0.00 | 0.00 | 0.00 | 90 | 1018.6 |
| 20260508054352 | 50 | 52 | 3.0 | 6.0 | 0.00 | 0.00 | 0.00 | 90 | 1018.6 |
| 20260508053939 | 50 | 51 | 3.0 | 7.0 | 0.00 | 0.00 | 0.00 | 90 | 1018.6 |
| 20260508052918 | 50 | 73 | 4.0 | 7.0 | 0.00 | 0.00 | 0.00 | 90 | 1018.5 |
| 20260508052532 | 50 | 39 | 4.0 | 7.0 | 0.00 | 0.00 | 0.00 | 90 | 1018.5 |
| 20260508052113 | 50 | 75 | 4.0 | 7.0 | 0.00 | 0.00 | 0.00 | 90 | 1018.4 |
| 20260508050406 | 50 | 30 | 5.0 | 8.0 | 0.00 | 0.00 | 0.00 | 90 | 1018.3 |
| 20260508045907 | 50 | 81 | 5.0 | 8.0 | 0.00 | 0.00 | 0.00 | 90 | 1018.3 |
| 20260508045503 | 50 | 82 | 4.0 | 8.0 | 0.00 | 0.00 | 0.00 | 90 | 1018.3 |
| 20260508045023 | 50 | 42 | 4.0 | 8.0 | 0.00 | 0.00 | 0.00 | 90 | 1018.2 |
| 20260508043854 | 50 | 74 | 5.0 | 8.0 | 0.00 | 0.00 | 0.00 | 90 | 1018.2 |
| 20260508043349 | 50 | 33 | 5.0 | 8.0 | 0.00 | 0.00 | 0.00 | 90 | 1018.2 |
| 20260508042848 | 50 | 65 | 5.0 | 8.0 | 0.00 | 0.00 | 0.00 | 90 | 1018.2 |
| 20260508042349 | 50 | 60 | 5.0 | 9.0 | 0.00 | 0.00 | 0.00 | 90 | 1018.2 |
| 20260508041847 | 50 | 52 | 6.0 | 9.0 | 0.00 | 0.00 | 0.00 | 89 | 1018.2 |
| 20260508041349 | 50 | 71 | 5.0 | 9.0 | 0.00 | 0.00 | 0.00 | 89 | 1018.2 |
| 20260508040849 | 50 | 73 | 5.0 | 8.0 | 0.00 | 0.00 | 0.00 | 89 | 1018.2 |
| 20260508040350 | 51 | 44 | 6.0 | 8.0 | 0.00 | 0.00 | 0.00 | 89 | 1018.2 |
| 20260508035901 | 51 | 75 | 5.0 | 8.0 | 0.00 | 0.00 | 0.00 | 89 | 1018.1 |
| 20260508035355 | 51 | 65 | 5.0 | 8.0 | 0.00 | 0.00 | 0.00 | 89 | 1018.2 |
| 20260508034850 | 51 | 76 | 5.0 | 8.0 | 0.00 | 0.00 | 0.00 | 89 | 1018.1 |
| 20260508034349 | 51 | 54 | 5.0 | 8.0 | 0.00 | 0.00 | 0.00 | 88 | 1018.0 |
| 20260508033851 | 51 | 81 | 5.0 | 8.0 | 0.00 | 0.00 | 0.00 | 88 | 1018.0 |
| 20260508033348 | 51 | 75 | 6.0 | 8.0 | 0.00 | 0.00 | 0.00 | 88 | 1018.0 |
| 20260508032845 | 51 | 74 | 6.0 | 8.0 | 0.00 | 0.00 | 0.00 | 88 | 1018.0 |
| 20260508032349 | 51 | 67 | 6.0 | 8.0 | 0.00 | 0.00 | 0.00 | 88 | 1018.0 |
| 20260508031854 | 51 | 67 | 6.0 | 8.0 | 0.00 | 0.00 | 0.00 | 88 | 1018.0 |
| 20260508031343 | 51 | 62 | 6.0 | 8.0 | 0.00 | 0.00 | 0.00 | 88 | 1018.0 |
| 20260508030843 | 51 | 68 | 7.0 | 9.0 | 0.00 | 0.00 | 0.00 | 87 | 1018.0 |
| 20260508030344 | 51 | 77 | 6.0 | 9.0 | 0.00 | 0.00 | 0.00 | 87 | 1017.9 |
| 20260508025909 | 51 | 54 | 5.0 | 9.0 | 0.00 | 0.00 | 0.00 | 87 | 1017.9 |
| 20260508024843 | 52 | 62 | 4.0 | 7.0 | 0.00 | 0.00 | 0.00 | 87 | 1017.9 |
| 20260508024341 | 52 | 43 | 4.0 | 7.0 | 0.00 | 0.00 | 0.00 | 87 | 1017.9 |
| 20260508023842 | 52 | 68 | 3.0 | 7.0 | 0.00 | 0.00 | 0.00 | 87 | 1017.9 |
| 20260508023341 | 52 | 63 | 3.0 | 6.0 | 0.00 | 0.00 | 0.00 | 87 | 1017.9 |
| 20260508022841 | 52 | 62 | 2.0 | 6.0 | 0.00 | 0.00 | 0.00 | 87 | 1018.0 |
| 20260508022342 | 52 | 47 | 2.0 | 4.0 | 0.00 | 0.00 | 0.00 | 86 | 1017.9 |
| 20260508021851 | 52 | 44 | 3.0 | 4.0 | 0.00 | 0.00 | 0.00 | 86 | 1017.9 |
| 20260508021341 | 52 | 59 | 3.0 | 4.0 | 0.00 | 0.00 | 0.00 | 86 | 1017.9 |
| 20260508020909 | 52 | 53 | 3.0 | 4.0 | 0.00 | 0.00 | 0.00 | 86 | 1017.8 |
| 20260508015910 | 52 | 54 | 3.0 | 6.0 | 0.00 | 0.00 | 0.00 | 86 | 1017.9 |
| 20260508014839 | 52 | 68 | 3.0 | 6.0 | 0.00 | 0.00 | 0.00 | 86 | 1017.9 |
| 20260508014342 | 52 | 46 | 4.0 | 6.0 | 0.00 | 0.00 | 0.00 | 85 | 1017.8 |
| 20260508013841 | 53 | 60 | 3.0 | 6.0 | 0.00 | 0.00 | 0.00 | 85 | 1017.8 |
| 20260508013339 | 53 | 60 | 4.0 | 7.0 | 0.00 | 0.00 | 0.00 | 85 | 1017.8 |
| 20260508012842 | 53 | 50 | 4.0 | 7.0 | 0.00 | 0.00 | 0.00 | 85 | 1017.9 |
| 20260508012341 | 53 | 71 | 4.0 | 7.0 | 0.00 | 0.00 | 0.00 | 85 | 1017.8 |
| 20260508011921 | 53 | 70 | 4.0 | 7.0 | 0.00 | 0.00 | 0.00 | 85 | 1017.9 |
| 20260508010840 | 53 | 50 | 3.0 | 6.0 | 0.00 | 0.00 | 0.00 | 85 | 1017.8 |
| 20260508010343 | 53 | 76 | 4.0 | 7.0 | 0.00 | 0.00 | 0.00 | 84 | 1017.9 |
| 20260508005839 | 53 | 57 | 4.0 | 7.0 | 0.00 | 0.00 | 0.00 | 84 | 1017.9 |
| 20260508005339 | 53 | 69 | 4.0 | 7.0 | 0.00 | 0.00 | 0.00 | 84 | 1017.8 |
| 20260508004840 | 53 | 61 | 4.0 | 8.0 | 0.00 | 0.00 | 0.00 | 84 | 1018.0 |
| 20260508004338 | 53 | 66 | 4.0 | 8.0 | 0.00 | 0.00 | 0.00 | 84 | 1018.0 |
| 20260508003841 | 53 | 62 | 3.0 | 6.0 | 0.00 | 0.00 | 0.00 | 84 | 1017.9 |
| 20260508002847 | 53 | 62 | 3.0 | 6.0 | 0.00 | 0.00 | 0.00 | 83 | 1018.0 |
| 20260508002438 | 53 | 67 | 3.0 | 6.0 | 0.00 | 0.00 | 0.00 | 83 | 1018.0 |
| 20260508001338 | 53 | 64 | 3.0 | 6.0 | 0.00 | 0.00 | 0.00 | 82 | 1018.0 |
| 20260508000841 | 53 | 62 | 3.0 | 6.0 | 0.00 | 0.00 | 0.00 | 81 | 1017.9 |
| 20260508000338 | 54 | 62 | 3.0 | 6.0 | 0.00 | 0.00 | 0.00 | 81 | 1017.9 |
| 20260507235838 | 54 | 67 | 3.0 | 6.0 | 0.00 | 0.00 | 0.00 | 81 | 1018.0 |
| 20260507235338 | 54 | 66 | 3.0 | 6.0 | 0.00 | 0.00 | 0.00 | 80 | 1018.0 |
| 20260507234836 | 54 | 56 | 3.0 | 6.0 | 0.00 | 0.00 | 0.00 | 80 | 1018.0 |
| 20260507234411 | 54 | 59 | 3.0 | 6.0 | 0.00 | 0.00 | 0.00 | 80 | 1018.1 |
| 20260507233337 | 54 | 50 | 3.0 | 6.0 | 0.00 | 0.00 | 0.00 | 79 | 1018.2 |
| 20260507232838 | 54 | 50 | 3.0 | 4.0 | 0.00 | 0.00 | 0.00 | 78 | 1018.2 |
| 20260507232337 | 54 | 63 | 2.0 | 4.0 | 0.00 | 0.00 | 0.00 | 78 | 1018.1 |
| 20260507231911 | 54 | 63 | 2.0 | 3.0 | 0.00 | 0.00 | 0.00 | 77 | 1018.1 |
| 20260507230836 | 55 | 63 | 2.0 | 4.0 | 0.00 | 0.00 | 0.00 | 76 | 1018.1 |
| 20260507230344 | 55 | 73 | 3.0 | 4.0 | 0.00 | 0.00 | 0.00 | 76 | 1018.2 |
| 20260507225837 | 55 | 68 | 2.0 | 4.0 | 0.00 | 0.00 | 0.00 | 75 | 1018.2 |
| 20260507225332 | 55 | 58 | 3.0 | 4.0 | 0.00 | 0.00 | 0.00 | 75 | 1018.2 |
| 20260507224915 | 55 | 50 | 3.0 | 6.0 | 0.00 | 0.00 | 0.00 | 75 | 1018.2 |
| 20260507223831 | 55 | 62 | 4.0 | 7.0 | 0.00 | 0.00 | 0.00 | 74 | 1018.2 |
| 20260507223332 | 55 | 57 | 3.0 | 8.0 | 0.00 | 0.00 | 0.00 | 75 | 1018.2 |
| 20260507222832 | 55 | 357 | 3.0 | 8.0 | 0.00 | 0.00 | 0.00 | 75 | 1018.2 |
| 20260507222333 | 55 | 38 | 2.0 | 8.0 | 0.00 | 0.00 | 0.00 | 75 | 1018.2 |
| 20260507221909 | 55 | 19 | 2.0 | 5.0 | 0.00 | 0.00 | 0.00 | 75 | 1018.2 |
| 20260507220830 | 55 | 56 | 2.0 | 5.0 | 0.00 | 0.00 | 0.00 | 75 | 1018.2 |
| 20260507220331 | 55 | 33 | 2.0 | 5.0 | 0.00 | 0.00 | 0.00 | 75 | 1018.2 |
| 20260507215834 | 56 | 46 | 2.0 | 4.0 | 0.00 | 0.00 | 0.00 | 75 | 1018.0 |
| 20260507215330 | 56 | 36 | 2.0 | 6.0 | 0.00 | 0.00 | 0.00 | 75 | 1018.1 |
| 20260507214832 | 56 | 72 | 2.0 | 6.0 | 0.00 | 0.00 | 0.00 | 75 | 1018.0 |
| 20260507214332 | 56 | 39 | 2.0 | 5.0 | 0.00 | 0.00 | 0.00 | 74 | 1018.1 |
| 20260507213923 | 56 | 355 | 3.0 | 7.0 | 0.00 | 0.00 | 0.00 | 74 | 1017.9 |
| 20260507212332 | 56 | 54 | 2.0 | 6.0 | 0.00 | 0.00 | 0.00 | 73 | 1018.0 |
| 20260507211831 | 56 | 48 | 3.0 | 6.0 | 0.00 | 0.00 | 0.00 | 73 | 1018.0 |
| 20260507211332 | 56 | 48 | 3.0 | 6.0 | 0.00 | 0.00 | 0.00 | 73 | 1018.0 |
| 20260507210853 | 56 | 62 | 3.0 | 6.0 | 0.00 | 0.00 | 0.00 | 73 | 1018.1 |
| 20260507205826 | 56 | 68 | 2.0 | 6.0 | 0.00 | 0.00 | 0.00 | 73 | 1018.0 |
| 20260507205322 | 56 | 62 | 2.0 | 6.0 | 0.00 | 0.00 | 0.00 | 73 | 1018.0 |
| 20260507204823 | 56 | 44 | 2.0 | 6.0 | 0.00 | 0.00 | 0.00 | 73 | 1017.9 |
| 20260507204330 | 56 | 44 | 3.0 | 4.0 | 0.00 | 0.00 | 0.00 | 73 | 1017.8 |
| 20260507203822 | 56 | 60 | 3.0 | 4.0 | 0.00 | 0.00 | 0.00 | 73 | 1017.8 |
| 20260507203352 | 56 | 68 | 3.0 | 6.0 | 0.00 | 0.00 | 0.00 | 73 | 1017.7 |
| 20260507202322 | 56 | 67 | 3.0 | 6.0 | 0.00 | 0.00 | 0.00 | 72 | 1017.8 |
| 20260507201821 | 56 | 67 | 3.0 | 6.0 | 0.00 | 0.00 | 0.00 | 72 | 1017.7 |
| 20260507201323 | 56 | 72 | 3.0 | 7.0 | 0.00 | 0.00 | 0.00 | 72 | 1017.7 |
| 20260507200821 | 56 | 62 | 4.0 | 7.0 | 0.00 | 0.00 | 0.00 | 71 | 1017.6 |
| 20260507200320 | 56 | 64 | 3.0 | 7.0 | 0.00 | 0.00 | 0.00 | 71 | 1017.6 |
| 20260507195844 | 56 | 42 | 3.0 | 6.0 | 0.00 | 0.00 | 0.00 | 71 | 1017.6 |
| 20260507194821 | 56 | 75 | 3.0 | 7.0 | 0.00 | 0.00 | 0.00 | 71 | 1017.5 |
| 20260507194318 | 57 | 58 | 3.0 | 7.0 | 0.00 | 0.00 | 0.00 | 71 | 1017.5 |
| 20260507193815 | 57 | 58 | 4.0 | 7.0 | 0.00 | 0.00 | 0.00 | 70 | 1017.4 |
| 20260507193316 | 57 | 58 | 4.0 | 8.0 | 0.00 | 0.00 | 0.00 | 70 | 1017.3 |
| 20260507192815 | 57 | 74 | 4.0 | 8.0 | 0.00 | 0.00 | 0.00 | 70 | 1017.3 |
| 20260507192345 | 57 | 72 | 4.0 | 9.0 | 0.00 | 0.00 | 0.00 | 70 | 1017.2 |
| 20260507191313 | 57 | 62 | 4.0 | 9.0 | 0.00 | 0.00 | 0.00 | 70 | 1017.2 |